[[{"header":{"parameterUnit":"m.s-1","parameterCategory":1,"la1":30.2991,"la2":30.254,"lo1":-89.0895,"lo2":-89.0444,"dx":0.0017,"dy":0.0017,"nx":28,"ny":28,"refTime":"2023-01-20T09:00:00:Z","depth":0,"parameterNumber":2,"parameterNumberName":"U-component_of_WINDS"},"data":[0,0,0,0,0,0,0,0,0,0,0,0,0,0,0,0,0,0,0,0,0,0,0,0,0,0,0,0,0,0,0,0,0,0,0,0,0,0,0,0,0,0,0,0,0,0,0,0,0,0,0,0,0,0,0,0,0,0,-2.337,-2.337,0,-2.3428,-2.3429,-2.3429,-2.3378,-2.3376,-2.3374,-2.3372,-2.3432,-2.3435,-2.3438,0,0,0,0,0,0,0,0,0,0,0,0,0,-2.3214,-2.3217,-2.337,-2.337,-2.3371,-2.3428,-2.3429,-2.3429,-2.3379,-2.3376,-2.3374,-2.3371,-2.343,-2.3435,-2.3439,0,0,0,0,0,0,0,0,0,0,0,0,0,-2.3278,-2.3218,-2.337,-2.3353,-2.3352,-2.3428,-2.3429,-2.343,-2.3379,-2.3376,-2.3373,-2.337,-2.3429,-2.3434,-2.3439,-2.3535,0,0,-2.3456,-2.3458,0,0,0,0,0,0,0,0,-2.3274,-2.3284,-2.3354,-2.3354,-2.3353,-2.3393,-2.3395,-2.3465,-2.338,-2.3369,-2.3372,-2.3368,-2.3421,-2.3427,-2.3445,-2.3538,-2.354,-2.3456,-2.3459,-2.3462,-2.3463,0,0,0,0,0,0,0,-2.327,-2.3281,-2.3393,-2.3356,-2.3355,-2.3342,-2.3347,-2.3408,-2.3412,-2.3369,-2.3366,-2.3373,-2.342,-2.344,-2.3446,-2.3541,-2.3456,-2.3461,-2.3464,-2.3466,-2.3716,-2.3719,0,0,0,0,0,0,-2.3267,-2.3277,-2.3391,-2.3394,-2.3305,-2.3347,-2.3353,-2.3383,-2.3411,-2.3412,-2.3376,-2.3371,-2.3432,-2.344,-2.3448,-2.3562,-2.3461,-2.3466,-2.347,-2.3712,-2.3716,-2.372,0,0,0,0,0,0,-2.3264,-2.3278,-2.3388,-2.3335,-2.3348,-2.3353,-2.3387,-2.3386,-2.3405,-2.3416,-2.3416,-2.3396,-2.343,-2.344,-2.3514,-2.3564,-2.3469,-2.3474,-2.3708,-2.3714,-2.3718,-2.3792,0,0,0,0,0,0,-2.326,-2.3277,-2.3314,-2.3336,-2.3351,-2.3454,-2.339,-2.3389,-2.3415,-2.3408,-2.3434,-2.3436,-2.3428,-2.3506,-2.3519,-2.3569,-2.3478,-2.3704,-2.3711,-2.3717,-2.3785,-2.3799,-2.3811,0,0,0,0,0,-2.3254,-2.3332,-2.3316,-2.333,-2.3397,-2.3457,-2.3466,-2.3456,-2.3419,-2.3456,-2.3462,-2.3435,-2.3555,-2.3514,-2.3528,-2.3581,-2.3701,-2.3709,-2.3716,-2.3779,-2.3796,-2.3811,0,0,0,0,0,0,-2.3316,-2.3335,-2.3317,-2.3404,-2.343,-2.3449,-2.3495,-2.3474,-2.351,-2.3503,-2.3488,-2.3495,-2.3573,-2.3583,-2.3537,-2.3675,-2.3622,-2.3633,-2.3665,-2.3681,-2.3694,-2.3691,-2.3482,0,0,0,0,0,-2.3339,-2.3386,-2.34,-2.3476,-2.3489,-2.349,-2.3516,-2.3506,-2.3531,-2.3542,-2.3554,-2.358,-2.3623,-2.3652,-2.3693,-2.3785,-2.3791,-2.3828,-2.3841,-2.3852,-2.3862,-2.3912,-2.393,-2.3746,-2.3746,-2.3746,0,0,-2.3388,-2.3405,-2.3436,-2.3489,-2.3507,-2.3556,-2.35,-2.3554,-2.3591,-2.355,-2.3621,-2.363,-2.3658,-2.3742,-2.3779,-2.3753,-2.3914,-2.3862,-2.387,-2.3875,-2.3922,-2.394,-2.3955,-2.3751,-2.375,-2.3749,0,0,-2.3504,-2.3521,-2.3586,-2.3605,-2.3634,-2.3633,-2.3649,-2.3671,-2.3676,-2.3747,-2.3717,-2.376,-2.3835,-2.3857,-2.3877,-2.4,-2.3976,-2.4013,-2.4081,-2.413,-2.4145,-2.4158,-2.4203,-2.4219,-2.4023,-2.4023,-2.4023,0,-2.3562,-2.3636,-2.3622,-2.3679,-2.3704,-2.3668,-2.3734,-2.3754,-2.3794,-2.3812,-2.3781,-2.3875,-2.3891,-2.398,-2.401,-2.4027,-2.4045,-2.4011,-2.4144,-2.4157,-2.4168,-2.4211,-2.4228,-2.4027,-2.4027,-2.4026,-2.4026,0,-2.3706,-2.3757,-2.3806,-2.3847,-2.3876,-2.3937,-2.3933,-2.3964,-2.3951,-2.3954,-2.4026,-2.4044,-2.4088,-2.4107,-2.4095,-2.4194,-2.4177,-2.4146,-2.4093,-2.4191,-2.4231,-2.4247,-2.4034,-2.4032,-2.4031,-2.403,0,0,-2.3864,-2.3895,-2.3914,-2.3932,-2.396,-2.3999,-2.4058,-2.4101,-2.4129,-2.4157,-2.4207,-2.4271,-2.4242,-2.4265,-2.4255,-2.4297,-2.4395,-2.4261,-2.4261,-2.4287,-2.4506,-2.4532,-2.4551,-2.4378,-2.4381,-2.4383,-2.4505,0,-2.3983,-2.4086,-2.4075,-2.4174,-2.4222,-2.4188,-2.4239,-2.4262,-2.4266,-2.4306,-2.431,-2.4356,-2.4313,-2.4328,-2.4368,-2.4374,-2.4439,-2.4365,-2.4425,-2.4428,-2.4422,-2.4572,-2.4599,-2.4712,-2.452,-2.4523,-2.4525,0,-2.4135,-2.4169,-2.4273,-2.4294,-2.4313,-2.436,-2.4399,-2.4437,-2.4462,-2.4462,-2.4487,-2.4469,-2.4528,-2.4472,-2.4554,-2.4504,-2.4527,-2.4534,-2.4538,-2.4545,-2.4484,-2.4585,-2.4748,-2.4766,-2.4549,-2.4547,-2.4545,0,-2.4242,-2.4314,-2.4385,-2.4401,-2.4427,-2.4461,-2.4473,-2.4494,-2.4521,-2.4554,-2.4571,-2.461,-2.4633,-2.4663,-2.4656,-2.4616,-2.474,-2.4683,-2.4742,-2.4743,-2.4772,-2.4771,-2.4944,-2.4783,-2.4783,-2.4783,-2.4782,0,-2.4377,-2.4442,-2.4434,-2.4478,-2.455,-2.4536,-2.4607,-2.4615,-2.4634,-2.4679,-2.4652,-2.4694,-2.4681,-2.4723,-2.4717,-2.4786,-2.4796,-2.4798,-2.4796,-2.4802,-2.4802,-2.4819,-2.4812,-2.4787,-2.4786,-2.4785,-2.4785,0,-2.451,-2.4507,-2.4583,-2.4601,-2.4607,-2.4659,-2.4674,-2.4716,-2.4716,-2.4774,-2.4786,-2.4787,-2.4835,-2.483,-2.4884,-2.488,-2.4966,-2.4954,-2.4958,-2.4956,-2.5016,-2.5012,-2.5208,-2.5234,-2.5055,-2.5056,-2.5058,0,-2.4598,-2.4647,-2.467,-2.4698,-2.4713,-2.4759,-2.4785,-2.4773,-2.4802,-2.4833,-2.4871,-2.4916,-2.4952,-2.503,-2.5036,-2.5076,-2.5066,-2.5132,-2.5072,-2.5077,-2.5069,-2.5068,-2.5073,-2.5145,-2.5147,-2.5148,-2.515,0,-2.4754,-2.475,-2.479,-2.4829,-2.4862,-2.4892,-2.492,-2.4944,-2.4934,-2.4968,-2.5016,-2.5044,-2.5099,-2.5144,-2.5183,-2.5194,-2.5171,-2.5168,-2.5184,-2.5192,-2.5193,-2.5195,-2.4993,-2.5164,-2.5163,-2.5162,-2.5161,-2.516,-2.4868,-2.4911,-2.4934,-2.4979,-2.4998,-2.5024,-2.5064,-2.507,-2.511,-2.5154,-2.5143,-2.5199,-2.5221,-2.527,-2.5286,-2.5329,-2.5305,-2.5328,-2.5334,-2.5341,-2.5348,-2.5184,-2.5335,-2.5335,-2.5334,-2.5334,-2.5334,0,-2.5025,-2.5037,-2.5079,-2.5118,-2.5154,-2.5127,-2.5156,-2.5188,-2.5237,-2.526,-2.5295,-2.5351,-2.5395,-2.5404,-2.5445,-2.5478,-2.5468,-2.549,-2.5488,-2.5492,-2.5367,-2.5349,-2.5497,-2.5497,-2.5497,-2.5497,-2.5497,-2.5497,-2.5111,-2.5182,-2.518,-2.526,-2.5272,-2.5326,-2.5345,-2.5369,-2.5387,-2.5451,-2.5487,-2.5492,-2.5509,-2.5552,-2.5591,-2.5592,-2.5609,-2.5636,-2.5633,-2.5517,-2.55,-2.5485,-2.5469,-2.5639,-2.5639,-2.5755,-2.5756,-2.5757]},{"header":{"parameterUnit":"m.s-1","parameterCategory":1,"la1":30.2991,"la2":30.254,"lo1":-89.0895,"lo2":-89.0444,"dx":0.0017,"dy":0.0017,"nx":28,"ny":28,"refTime":"2023-01-20T09:00:00:Z","depth":0,"parameterNumber":3,"parameterNumberName":"V-component_of_WINDS"},"data":[0,0,0,0,0,0,0,0,0,0,0,0,0,0,0,0,0,0,0,0,0,0,0,0,0,0,0,0,0,0,0,0,0,0,0,0,0,0,0,0,0,0,0,0,0,0,0,0,0,0,0,0,0,0,0,0,0,0,-4.2549,-4.255,0,-4.2613,-4.2614,-4.2614,-4.2589,-4.2587,-4.2586,-4.2585,-4.2645,-4.2648,-4.2651,0,0,0,0,0,0,0,0,0,0,0,0,0,-4.2401,-4.2403,-4.2549,-4.255,-4.2551,-4.2613,-4.2614,-4.2615,-4.2589,-4.2587,-4.2586,-4.2584,-4.2644,-4.2648,-4.2651,0,0,0,0,0,0,0,0,0,0,0,0,0,-4.2465,-4.2404,-4.2549,-4.2546,-4.2546,-4.2613,-4.2614,-4.2615,-4.259,-4.2587,-4.2585,-4.2583,-4.2643,-4.2647,-4.2652,-4.2724,0,0,-4.2665,-4.2667,0,0,0,0,0,0,0,0,-4.2461,-4.247,-4.2545,-4.2546,-4.2547,-4.2591,-4.2583,-4.2651,-4.259,-4.2573,-4.2585,-4.2582,-4.2628,-4.2634,-4.2651,-4.2727,-4.2729,-4.2666,-4.2668,-4.267,-4.2672,0,0,0,0,0,0,0,-4.2457,-4.2467,-4.2574,-4.2547,-4.2547,-4.2539,-4.2546,-4.2596,-4.2612,-4.2574,-4.2573,-4.2581,-4.2628,-4.2646,-4.2652,-4.273,-4.2666,-4.267,-4.2672,-4.2674,-4.2868,-4.287,0,0,0,0,0,0,-4.2453,-4.2464,-4.2572,-4.2576,-4.2498,-4.2544,-4.2551,-4.2579,-4.2612,-4.2615,-4.2583,-4.2579,-4.264,-4.2647,-4.2654,-4.2741,-4.267,-4.2675,-4.2677,-4.2865,-4.2868,-4.2871,0,0,0,0,0,0,-4.245,-4.2463,-4.257,-4.252,-4.2533,-4.2549,-4.258,-4.2581,-4.2599,-4.2618,-4.262,-4.2599,-4.2638,-4.2648,-4.2707,-4.2742,-4.2677,-4.2681,-4.2862,-4.2866,-4.2869,-4.2914,0,0,0,0,0,0,-4.2446,-4.2462,-4.2491,-4.252,-4.2535,-4.2623,-4.2582,-4.2584,-4.2608,-4.2604,-4.2633,-4.2636,-4.2637,-4.27,-4.2711,-4.2747,-4.2684,-4.2859,-4.2864,-4.2868,-4.291,-4.2919,-4.2927,0,0,0,0,0,-4.244,-4.25,-4.2492,-4.2505,-4.2572,-4.2625,-4.2634,-4.2635,-4.2611,-4.2639,-4.2651,-4.2635,-4.2737,-4.2707,-4.2719,-4.2757,-4.2857,-4.2863,-4.2868,-4.2906,-4.2917,-4.2927,0,0,0,0,0,0,-4.2472,-4.2503,-4.2496,-4.2567,-4.2594,-4.2621,-4.2657,-4.2647,-4.268,-4.2675,-4.2674,-4.2681,-4.2742,-4.2755,-4.2721,-4.2828,-4.2793,-4.2801,-4.2817,-4.2828,-4.2837,-4.2833,-4.2688,0,0,0,0,0,-4.2487,-4.2529,-4.2554,-4.2614,-4.2628,-4.264,-4.2664,-4.2663,-4.269,-4.2701,-4.2717,-4.2743,-4.278,-4.2805,-4.284,-4.2911,-4.2917,-4.2943,-4.2952,-4.2959,-4.2966,-4.3004,-4.3016,-4.2889,-4.2889,-4.2889,0,0,-4.2519,-4.2541,-4.2568,-4.2621,-4.2642,-4.2684,-4.265,-4.2696,-4.2727,-4.2707,-4.2765,-4.2777,-4.2806,-4.2871,-4.2901,-4.2884,-4.3002,-4.2966,-4.2971,-4.2975,-4.3011,-4.3023,-4.3034,-4.2893,-4.2892,-4.2891,0,0,-4.2599,-4.262,-4.2673,-4.2695,-4.2728,-4.2735,-4.2748,-4.2777,-4.2785,-4.2843,-4.2829,-4.2864,-4.2929,-4.295,-4.2969,-4.3057,-4.3044,-4.3068,-4.3114,-4.3151,-4.3161,-4.317,-4.3201,-4.3212,-4.3075,-4.3076,-4.3076,0,-4.2634,-4.2699,-4.2701,-4.2749,-4.2772,-4.2758,-4.281,-4.283,-4.2872,-4.2888,-4.2869,-4.295,-4.2968,-4.3038,-4.306,-4.3076,-4.3089,-4.3065,-4.316,-4.3169,-4.3177,-4.3207,-4.3218,-4.3078,-4.3078,-4.3078,-4.3078,0,-4.274,-4.2785,-4.2824,-4.2867,-4.2894,-4.2944,-4.2952,-4.298,-4.2976,-4.2985,-4.3044,-4.3065,-4.3105,-4.3121,-4.3117,-4.319,-4.3179,-4.316,-4.3125,-4.3192,-4.322,-4.3231,-4.3082,-4.3081,-4.3081,-4.308,0,0,-4.2842,-4.2886,-4.29,-4.2919,-4.2954,-4.2988,-4.3036,-4.3077,-4.3101,-4.3129,-4.317,-4.3225,-4.3207,-4.3229,-4.3227,-4.326,-4.3328,-4.3237,-4.3237,-4.3253,-4.341,-4.3424,-4.3438,-4.3319,-4.3321,-4.3323,-4.3407,0,-4.2925,-4.3013,-4.3016,-4.3095,-4.3136,-4.3122,-4.3165,-4.319,-4.3199,-4.3234,-4.3244,-4.3283,-4.3257,-4.327,-4.3302,-4.3313,-4.3359,-4.3307,-4.3355,-4.3357,-4.335,-4.3452,-4.3468,-4.3547,-4.3418,-4.342,-4.3422,0,-4.3033,-4.3068,-4.3152,-4.3181,-4.3199,-4.3237,-4.3274,-4.3308,-4.3336,-4.334,-4.3365,-4.3358,-4.3406,-4.3369,-4.3435,-4.3399,-4.3419,-4.3427,-4.343,-4.3435,-4.3394,-4.346,-4.3572,-4.3584,-4.3439,-4.3437,-4.3436,0,-4.3099,-4.3167,-4.3226,-4.3243,-4.3278,-4.3305,-4.3321,-4.3346,-4.337,-4.3402,-4.3417,-4.3454,-4.3473,-4.3501,-4.3504,-4.3477,-4.357,-4.3533,-4.3574,-4.3574,-4.3594,-4.3593,-4.3711,-4.3607,-4.3606,-4.3606,-4.3606,0,-4.3192,-4.3244,-4.3256,-4.3293,-4.335,-4.3352,-4.3408,-4.3421,-4.3444,-4.3481,-4.3471,-4.3505,-4.3507,-4.3542,-4.3544,-4.3598,-4.3607,-4.3611,-4.3611,-4.3613,-4.3612,-4.3626,-4.362,-4.3609,-4.3609,-4.3608,-4.3608,0,-4.3276,-4.3286,-4.335,-4.3378,-4.3387,-4.3428,-4.3451,-4.3485,-4.3494,-4.3541,-4.3552,-4.3565,-4.3606,-4.3612,-4.3659,-4.366,-4.3725,-4.3719,-4.3717,-4.3716,-4.3756,-4.3753,-4.3887,-4.3905,-4.3789,-4.379,-4.3791,0,-4.3334,-4.3374,-4.3408,-4.3433,-4.3451,-4.3491,-4.3516,-4.3519,-4.3545,-4.358,-4.3609,-4.365,-4.3682,-4.3748,-4.376,-4.3796,-4.3791,-4.3836,-4.3796,-4.3797,-4.3792,-4.379,-4.3794,-4.3844,-4.3845,-4.3846,-4.3847,0,-4.3437,-4.3441,-4.3478,-4.3518,-4.3548,-4.3579,-4.3608,-4.3628,-4.3635,-4.3664,-4.3707,-4.3733,-4.3782,-4.3822,-4.3857,-4.3871,-4.386,-4.3859,-4.3871,-4.3872,-4.387,-4.3872,-4.3738,-4.3856,-4.3855,-4.3854,-4.3854,-4.3854,-4.351,-4.3546,-4.3575,-4.3617,-4.3639,-4.3666,-4.37,-4.3713,-4.375,-4.3791,-4.379,-4.3837,-4.3862,-4.3909,-4.3926,-4.3962,-4.3947,-4.3963,-4.3967,-4.3971,-4.3976,-4.3864,-4.3968,-4.3968,-4.3967,-4.3967,-4.3967,0,-4.3613,-4.3632,-4.367,-4.3712,-4.3745,-4.3733,-4.3764,-4.3792,-4.3834,-4.3859,-4.3892,-4.3941,-4.3979,-4.3995,-4.4032,-4.4058,-4.4053,-4.4067,-4.4066,-4.4069,-4.3987,-4.3973,-4.407,-4.407,-4.407,-4.407,-4.407,-4.407,-4.3671,-4.3729,-4.3736,-4.3805,-4.3822,-4.387,-4.3889,-4.3913,-4.3934,-4.399,-4.4022,-4.4033,-4.4054,-4.4093,-4.4127,-4.413,-4.4145,-4.4161,-4.4162,-4.4085,-4.4075,-4.4065,-4.4052,-4.4164,-4.4164,-4.4241,-4.4242,-4.4243]}]]